Home > Weather > Egersund > Past weeks

Flag for Norway Past Weather in Egersund, Norway — Yesterday and Last 2 Weeks

Now
56 °F

Cool.


Feels Like: 56 °F
Forecast: 56 / 72 °F
Wind: 1 mph from North

Location: Ualand-Bjuland

Current Time: Jun 1, 2016 at 7:31:56 AM

Latest Report: Jun 1, 2016 at 6:00 AM


Visibility: N/A

Pressure: 30.16 "Hg

Humidity: 99%

Dew Point: 55 °F

Location of EgersundLocation

Past Weather in Egersund — Graph

°F

Egersund Temperature Yesterday

Maximum temperature yesterday: 77 °F (at 2:00 PM)
Minimum temperature yesterday: 54 °F (at 2:00 AM)
Average temperature yesterday: 65 °F

High & Low Weather Summary for the Past Weeks

 TemperatureHumidityPressure
High77 °F (May 31, 2:00 PM)99% (May 23, 1:00 AM)30.17 "Hg (May 23, 1:00 AM)
Low38 °F (May 17, 6:00 AM)32% (May 25, 2:00 PM)29.69 "Hg (May 20, 10:00 AM)
Average55 °F78%29.94 "Hg
* Reported May 17 6:00 AM — Jun 1 6:00 AM, Egersund, Weather by CustomWeather, © 2016

Note: Actual official high and low records may vary slightly from our data, if they occured in-between our weather recording intervals... More about our weather records

Advertising

Egersund Weather History for the Previous 24 Hours

Scroll right to see more
 ConditionsComfort  
Time TempWeatherWind HumidityBarometerVisibility
6:00 AM
Wed, Jun 1
56 °FCool.1 mph99%30.16 "HgN/A
5:00 AM56 °FCool.1 mph99%30.17 "HgN/A
4:00 AM56 °FCool.1 mph98%30.16 "HgN/A
3:00 AM58 °FCool.1 mph98%30.16 "HgN/A
2:00 AM60 °FCool.No wind97%30.16 "HgN/A
1:00 AM61 °FCool.2 mph96%30.16 "HgN/A
12:00 AM63 °FMild.1 mph87%30.15 "HgN/A
11:00 PM
Tue, May 31
62 °FCool.No wind89%30.15 "HgN/A
10:00 PM65 °FMild.1 mph82%30.13 "HgN/A
9:00 PM68 °FMild.1 mph72%30.12 "HgN/A
8:00 PM73 °FOvercast.2 mph54%30.10 "Hg37 mi
7:00 PM75 °FMild.3 mph50%30.09 "HgN/A
6:00 PM77 °FMild.2 mph47%30.08 "HgN/A
5:00 PM75 °FMild.2 mph51%30.09 "HgN/A
2:00 PM77 °FPartly sunny.3 mph46%30.09 "Hg47 mi
12:00 PM73 °FMild.3 mph53%30.10 "HgN/A
11:00 AM73 °FMild.5 mph57%30.09 "HgN/A
10:00 AM71 °FMild.3 mph62%30.09 "HgN/A
9:00 AM69 °FMild.2 mph68%30.10 "HgN/A
8:00 AM63 °FPassing clouds.2 mph81%30.10 "Hg19 mi
7:00 AM58 °FCool.1 mph97%30.10 "HgN/A
Weather by CustomWeather, © 2016

See weather overviewHow to use our weather pages